This demonstration page uses our WeatherBlox Daily Observations layout. Learn more.

Left ArrowRight Arrow

53.62937, 11.41316

Hourly Observations for January 29, 2022

Temp ( °F °C ) Dew Point ( °F °C ) Humidity (%) Winds ( mph kmh ) Pressure ( in mb ) Visibility ( mi km ) Precip ( " mm )
12:20 am 00:20 Mostly Cloudy 39 4 34 1 81 81 VRB 6 9 30.24 1024 30 48 N/A
12:50 am 00:50 Mostly Cloudy 39 4 34 1 81 81 VRB 7 11 30.21 1023 30 48 N/A
1:20 am 01:20 Mostly Cloudy 39 4 36 2 87 87 VRB 7 11 30.21 1023 30 48 N/A
1:50 am 01:50 Cloudy 41 5 36 2 81 81 VRB 6 9 30.18 1022 30 48 N/A
2:20 am 02:20 Mostly Cloudy 41 5 37 3 87 87 SSW 7 11 30.15 1021 30 48 N/A
2:50 am 02:50 Mostly Cloudy 41 5 37 3 87 87 VRB 7 11 30.15 1021 30 48 N/A
3:20 am 03:20 Mostly Cloudy 41 5 39 4 93 93 VRB 6 9 30.12 1020 5 8 N/A
3:50 am 03:50 Mostly Cloudy 41 5 39 4 93 93 SSW 7 11 30.09 1019 4 6 N/A
4:20 am 04:20 Mostly Cloudy 41 5 39 4 93 93 SW 7 11 30.06 1018 3 5 N/A
4:50 am 04:50 Mostly Cloudy 41 5 39 4 93 93 VRB 8 13 30.03 1017 4 6 N/A
5:20 am 05:20 Mostly Cloudy 43 6 41 5 93 93 WSW 10 17 30.03 1017 4 7 N/A
5:50 am 05:50 Mostly Cloudy 43 6 41 5 93 93 WSW 14 22 30.00 1016 4 6 N/A
6:20 am 06:20 Cloudy 43 6 41 5 93 93 WSW 14 22 29.97 1015 4 6 N/A
6:50 am 06:50 Cloudy 43 6 41 5 93 93 WSW 14 22 29.97 1015 3 5 N/A
7:20 am 07:20 Cloudy 45 7 43 6 93 93 WSW 15 24 29.95 1014 5 8 N/A
7:50 am 07:50 Cloudy with Light Rain 45 7 43 6 93 93 WSW 16 26 29.95 1014 3 4 N/A
8:20 am 08:20 Cloudy with Drizzle 45 7 45 7 100 100 WSW 18 30 29.95 1014 3 4 N/A
8:50 am 08:50 Mostly Cloudy with Drizzle 46 8 45 7 93 93 WSW 17 28 29.92 1013 4 6 N/A
9:20 am 09:20 Mostly Cloudy 46 8 45 7 93 93 W 20 31 29.92 1013 5 8 N/A
9:50 am 09:50 Mostly Cloudy 46 8 45 7 93 93 WSW 17 28 29.92 1013 6 9 N/A
10:20 am 10:20 Cloudy 46 8 45 7 93 93 WSW 17 28 29.89 1012 5 8 N/A
10:50 am 10:50 Cloudy 46 8 45 7 93 93 W 21 33 29.89 1012 4 6 N/A
11:20 am 11:20 Cloudy 46 8 45 7 93 93 WSW 18 30 29.86 1011 4 7 N/A
11:50 am 11:50 Cloudy with Light Rain 46 8 45 7 93 93 WSW 17 28 29.86 1011 4 6 N/A
12:20 pm 12:20 Cloudy 48 9 45 7 87 87 WSW 18 30 29.83 1010 30 48 N/A
12:50 pm 12:50 Cloudy 48 9 45 7 87 87 WSW 22 35 29.83 1010 30 48 N/A
1:20 pm 13:20 Cloudy 48 9 45 7 87 87 W 20 31 29.80 1009 30 48 N/A
1:50 pm 13:50 Cloudy with Light Rain 48 9 45 7 87 87 WSW 17 28 29.77 1008 3 5 N/A
2:20 pm 14:20 Mostly Cloudy with Light Rain 48 9 45 7 87 87 WSW 21 33 29.74 1007 30 48 N/A
2:50 pm 14:50 Cloudy with Light Rain 50 10 45 7 82 82 WSW 23 37 29.71 1006 30 48 N/A
3:20 pm 15:20 Mostly Cloudy 50 10 45 7 82 82 WSW 22 35 29.68 1005 30 48 N/A
3:50 pm 15:50 Mostly Cloudy 50 10 45 7 82 82 W 21 33 29.68 1005 30 48 N/A
4:20 pm 16:20 Mostly Cloudy 50 10 45 7 82 82 W 22 35 29.65 1004 30 48 N/A
4:50 pm 16:50 Mostly Cloudy with Light Rain 52 11 43 6 72 72 W 31 50 29.65 1004 30 48 N/A
5:50 pm 17:50 Mostly Cloudy with Light Rain 50 10 41 5 71 71 W 25 41 29.65 1004 30 48 N/A
6:20 pm 18:20 Mostly Cloudy 50 10 41 5 71 71 W 26 43 29.65 1004 30 48 N/A
6:50 pm 18:50 Mostly Cloudy with Light Rain 46 8 43 6 87 87 W 26 43 29.68 1005 4 6 N/A
7:20 pm 19:20 Mostly Cloudy with Light Rain 46 8 37 3 71 71 W 29 46 29.68 1005 30 48 N/A
8:20 pm 20:20 Mostly Cloudy 46 8 36 2 66 66 WNW 24 39 29.71 1006 30 48 N/A
8:50 pm 20:50 Mostly Cloudy 45 7 34 1 66 66 W 26 43 29.74 1007 30 48 N/A
9:20 pm 21:20 Mostly Cloudy 45 7 32 0 61 61 W 22 35 29.74 1007 30 48 N/A
9:50 pm 21:50 Mostly Cloudy 45 7 36 2 71 71 W 24 39 29.74 1007 30 48 N/A
10:20 pm 22:20 Mostly Cloudy 43 6 36 2 76 76 W 28 44 29.74 1007 30 48 N/A
10:50 pm 22:50 Mostly Cloudy 43 6 36 2 76 76 W 23 37 29.77 1008 30 48 N/A
11:20 pm 23:20 Mostly Cloudy 43 6 36 2 76 76 W 24 39 29.77 1008 30 48 N/A
11:50 pm 23:50 Mostly Cloudy 45 7 34 1 66 66 W 25 41 29.77 1008 30 48 N/A

Powered by AerisWeather